Home   Weather   Tulsa   Past weeks

Flag for USA Past Weather in Tulsa, Oklahoma, USA — Yesterday and Last 2 Weeks

46 °F


Feels Like: 42 °F
Forecast: 50 / 76 °F
Wind: 7 mph from Southeast

Location: Tulsa International Airport

Current Time: Oct 22, 2016 at 6:58:05 AM

Latest Report: Oct 22, 2016 at 5:53 AM

Visibility: 10 mi

Pressure: 30.10 "Hg

Humidity: 86%

Dew Point: 42 °F

Location of TulsaLocation

Past Weather in Tulsa — Graph


Tulsa Temperature Yesterday

Maximum temperature yesterday: 68 °F (at 3:53 PM)
Minimum temperature yesterday: 42 °F (at 5:53 AM)
Average temperature yesterday: 54 °F

High & Low Weather Summary for the Past Weeks

High89 °F (Oct 16, 3:53 PM)100% (Oct 7, 5:53 AM)30.36 "Hg (Oct 7, 5:53 AM)
Low42 °F (Oct 21, 5:53 AM)26% (Oct 8, 2:53 PM)29.48 "Hg (Oct 17, 5:53 PM)
Average66 °F70%30.04 "Hg
* Reported Oct 7 5:53 AM — Oct 22 5:53 AM, Tulsa, Weather by CustomWeather, © 2016

Note: Actual official high and low records may vary slightly from our data, if they occured in-between our weather recording intervals... More about our weather records


Tulsa Weather History for the Previous 24 Hours

Scroll right to see more
Time TempWeatherWind HumidityBarometerVisibility
5:53 AM
Sat, Oct 22
46 °FClear.7 mph86%30.10 "Hg10 mi
4:53 AM50 °FClear.5 mph74%30.09 "Hg10 mi
3:53 AM49 °FClear.6 mph74%30.10 "Hg10 mi
2:53 AM50 °FClear.6 mph71%30.11 "Hg10 mi
1:53 AM53 °FClear.6 mph61%30.11 "Hg10 mi
12:53 AM52 °FClear.6 mph66%30.11 "Hg10 mi
11:53 PM
Fri, Oct 21
50 °FClear.3 mph74%30.12 "Hg10 mi
10:53 PM54 °FClear.3 mph62%30.13 "Hg10 mi
9:53 PM52 °FClear.3 mph69%30.13 "Hg10 mi
8:53 PM58 °FClear.7 mph50%30.12 "Hg10 mi
7:53 PM59 °FPassing clouds.3 mph48%30.13 "Hg10 mi
6:53 PM59 °FPassing clouds.5 mph49%30.11 "Hg10 mi
5:53 PM66 °FPartly sunny.5 mph29%30.11 "Hg10 mi
4:53 PM67 °FPartly sunny.6 mph30%30.13 "Hg10 mi
3:53 PM68 °FPassing clouds.6 mph28%30.15 "Hg10 mi
2:53 PM67 °FPassing clouds.3 mph30%30.17 "Hg10 mi
1:53 PM65 °FPassing clouds.5 mph29%30.20 "Hg10 mi
12:53 PM63 °FPassing clouds.No wind38%30.26 "Hg10 mi
11:53 AM61 °FPassing clouds.3 mph46%30.29 "Hg10 mi
10:53 AM57 °FPassing clouds.6 mph60%30.30 "Hg10 mi
9:53 AM52 °FPassing clouds.No wind75%30.32 "Hg10 mi
8:53 AM50 °FPassing clouds.No wind80%30.30 "Hg10 mi
7:53 AM42 °FPassing clouds.No wind96%30.31 "Hg10 mi
6:53 AM45 °FPassing clouds.No wind86%30.31 "Hg10 mi
Weather by CustomWeather, © 2016

See weather overviewHow to use our weather pages